Year,Month,Day,Hour,Minute,Value (Times are PST for temperature in C)
2009,08,20,09,47,20.90
2009,08,20,09,48,21.00
2009,08,20,09,49,21.10
2009,08,20,09,50,21.20
2009,08,20,09,51,21.30
2009,08,20,09,52,21.40
2009,08,20,09,53,21.50
2009,08,20,09,54,21.60
2009,08,20,09,55,21.70
2009,08,20,09,56,21.80
2009,08,20,09,57,21.90
2009,08,20,09,58,22.00
2009,08,20,09,59,22.00
2009,08,20,10,00,22.10
2009,08,20,10,01,22.20
2009,08,20,10,02,22.30
2009,08,20,10,03,22.30
2009,08,20,10,04,22.40
2009,08,20,10,05,22.40
2009,08,20,10,06,22.50
2009,08,20,10,07,22.50
2009,08,20,10,08,22.50
2009,08,20,10,09,22.40
2009,08,20,10,10,22.40
2009,08,20,10,11,22.40
2009,08,20,10,12,22.40
2009,08,20,10,13,22.40
2009,08,20,10,14,22.40
2009,08,20,10,15,22.40
2009,08,20,10,16,22.40
2009,08,20,10,17,22.40
2009,08,20,10,18,22.40
2009,08,20,10,19,22.50
2009,08,20,10,20,22.50
2009,08,20,10,21,22.60
2009,08,20,10,22,22.60
2009,08,20,10,23,22.60
2009,08,20,10,24,22.70
2009,08,20,10,25,22.70
2009,08,20,10,26,22.70
2009,08,20,10,27,22.70
2009,08,20,10,28,22.70
2009,08,20,10,29,22.80
2009,08,20,10,30,22.80
2009,08,20,10,31,22.80
2009,08,20,10,32,22.90
2009,08,20,10,33,23.00
2009,08,20,10,34,23.00
2009,08,20,10,35,23.10
2009,08,20,10,36,23.20
2009,08,20,10,37,23.20
2009,08,20,10,38,23.20
2009,08,20,10,39,23.20
2009,08,20,10,40,23.10
2009,08,20,10,41,23.00
2009,08,20,10,42,22.90
2009,08,20,10,43,22.80
2009,08,20,10,44,22.80
2009,08,20,10,45,22.70
2009,08,20,10,46,22.60
2009,08,20,10,47,22.50
2009,08,20,10,48,22.40
2009,08,20,10,49,22.40
2009,08,20,10,50,22.30
2009,08,20,10,51,22.30
2009,08,20,10,52,22.30
2009,08,20,10,53,22.30
2009,08,20,10,54,22.30
2009,08,20,10,55,22.30
2009,08,20,10,56,22.40
2009,08,20,10,57,22.40
2009,08,20,10,58,22.60
2009,08,20,10,59,22.70
2009,08,20,11,00,22.90
2009,08,20,11,01,23.00
2009,08,20,11,02,23.00
2009,08,20,11,03,23.10
2009,08,20,11,04,23.20
2009,08,20,11,05,23.20
2009,08,20,11,06,23.10
2009,08,20,11,07,22.90
2009,08,20,11,08,22.80
2009,08,20,11,09,22.70
2009,08,20,11,10,22.70
2009,08,20,11,11,22.70
2009,08,20,11,12,22.70
2009,08,20,11,13,22.60
2009,08,20,11,14,22.40
2009,08,20,11,15,22.30
2009,08,20,11,16,22.30
2009,08,20,11,17,22.30
2009,08,20,11,18,22.30
2009,08,20,11,19,22.30
2009,08,20,11,20,22.40
2009,08,20,11,21,22.50
2009,08,20,11,22,22.60
2009,08,20,11,23,22.60
2009,08,20,11,24,22.50
2009,08,20,11,25,22.40
2009,08,20,11,26,22.20
2009,08,20,11,27,22.10
2009,08,20,11,28,22.10
2009,08,20,11,29,22.20
2009,08,20,11,30,22.10
2009,08,20,11,31,22.10
2009,08,20,11,32,22.00
2009,08,20,11,33,21.90
2009,08,20,11,34,21.80
2009,08,20,11,35,21.80
2009,08,20,11,36,21.80
2009,08,20,11,37,21.80
2009,08,20,11,38,21.90
2009,08,20,11,39,22.00
2009,08,20,11,40,22.00
2009,08,20,11,41,22.00
2009,08,20,11,42,22.10
2009,08,20,11,43,22.10
2009,08,20,11,44,22.20
2009,08,20,11,45,22.30
2009,08,20,11,46,22.30
2009,08,20,11,47,22.40
2009,08,20,11,48,22.40
2009,08,20,11,49,22.50
2009,08,20,11,50,22.40
2009,08,20,11,51,22.40
2009,08,20,11,52,22.40
2009,08,20,11,53,22.50
2009,08,20,11,54,22.50
2009,08,20,11,55,22.50
2009,08,20,11,56,22.40
2009,08,20,11,57,22.30
2009,08,20,11,58,22.30
2009,08,20,11,59,22.40
2009,08,20,12,00,22.40
2009,08,20,12,01,22.30
2009,08,20,12,02,22.20
2009,08,20,12,03,22.10
2009,08,20,12,04,22.10
2009,08,20,12,05,22.00
2009,08,20,12,06,22.00
2009,08,20,12,07,22.00
2009,08,20,12,08,22.10
2009,08,20,12,09,22.10
2009,08,20,12,10,22.10
2009,08,20,12,11,22.10
2009,08,20,12,12,22.20
2009,08,20,12,13,22.10
2009,08,20,12,14,21.90
2009,08,20,12,15,21.90
2009,08,20,12,16,21.80
2009,08,20,12,17,21.80
2009,08,20,12,18,21.80
2009,08,20,12,19,21.70
2009,08,20,12,20,21.60
2009,08,20,12,21,21.60
2009,08,20,12,22,21.70
2009,08,20,12,23,21.70
2009,08,20,12,24,21.70
2009,08,20,12,25,21.70
2009,08,20,12,26,21.70
2009,08,20,12,27,21.70
2009,08,20,12,28,21.70
2009,08,20,12,29,21.60
2009,08,20,12,30,21.60
2009,08,20,12,31,21.60
2009,08,20,12,32,21.60
2009,08,20,12,33,21.60
2009,08,20,12,34,21.70
2009,08,20,12,35,21.80
2009,08,20,12,36,21.80
2009,08,20,12,37,21.80
2009,08,20,12,38,21.90
2009,08,20,12,39,22.00
2009,08,20,12,40,22.10
2009,08,20,12,41,22.00
2009,08,20,12,42,21.90
2009,08,20,12,43,21.90
2009,08,20,12,44,21.90
2009,08,20,12,45,21.90
2009,08,20,12,46,21.90
2009,08,20,12,47,21.90
2009,08,20,12,48,21.90
2009,08,20,12,49,21.90
2009,08,20,12,50,21.90
2009,08,20,12,51,21.80
2009,08,20,12,52,21.90
2009,08,20,12,53,21.90
2009,08,20,12,54,21.90
2009,08,20,12,55,21.90
2009,08,20,12,56,21.90
2009,08,20,12,57,21.90
2009,08,20,12,58,21.90
2009,08,20,12,59,21.90
2009,08,20,13,00,21.90
2009,08,20,13,01,22.00
2009,08,20,13,02,22.10
2009,08,20,13,03,22.10
2009,08,20,13,04,22.20
2009,08,20,13,05,22.20
2009,08,20,13,06,22.30
2009,08,20,13,07,22.40
2009,08,20,13,08,22.60
2009,08,20,13,09,22.60
2009,08,20,13,10,22.70
2009,08,20,13,11,22.80
2009,08,20,13,12,22.90
2009,08,20,13,13,22.90
2009,08,20,13,14,22.80
2009,08,20,13,15,22.60
2009,08,20,13,16,22.60
2009,08,20,13,17,22.50
2009,08,20,13,18,22.50
2009,08,20,13,19,22.40
2009,08,20,13,20,22.40
2009,08,20,13,21,22.40
2009,08,20,13,22,22.50
2009,08,20,13,23,22.60
2009,08,20,13,24,22.70
2009,08,20,13,25,22.90
2009,08,20,13,26,22.90
2009,08,20,13,27,22.90
2009,08,20,13,28,23.00
2009,08,20,13,29,23.00
2009,08,20,13,30,23.10
2009,08,20,13,31,23.10
2009,08,20,13,32,23.10
2009,08,20,13,33,23.10
2009,08,20,13,34,23.10
2009,08,20,13,35,22.90
2009,08,20,13,36,22.80
2009,08,20,13,37,22.70
2009,08,20,13,38,22.70
2009,08,20,13,39,22.70
2009,08,20,13,40,22.80
2009,08,20,13,41,22.80
2009,08,20,13,42,22.80
2009,08,20,13,43,22.90
2009,08,20,13,44,23.00
2009,08,20,13,45,23.00
2009,08,20,13,46,23.10
2009,08,20,13,47,23.10
2009,08,20,13,48,23.20
2009,08,20,13,49,23.30
2009,08,20,13,50,23.30
2009,08,20,13,51,23.30
2009,08,20,13,52,23.20
2009,08,20,13,53,23.00
2009,08,20,13,54,22.80
2009,08,20,13,55,22.70
2009,08,20,13,56,22.60
2009,08,20,13,57,22.60
2009,08,20,13,58,22.60
2009,08,20,13,59,22.60
2009,08,20,14,00,22.70
2009,08,20,14,01,22.80
2009,08,20,14,02,22.80
2009,08,20,14,03,22.70
2009,08,20,14,04,22.60
2009,08,20,14,05,22.50
2009,08,20,14,06,22.40
2009,08,20,14,07,22.30
2009,08,20,14,08,22.20
2009,08,20,14,09,22.10
2009,08,20,14,10,21.90
2009,08,20,14,11,21.80
2009,08,20,14,12,21.70
2009,08,20,14,13,21.70
2009,08,20,14,14,21.80
2009,08,20,14,15,21.80
2009,08,20,14,16,22.00
2009,08,20,14,17,22.10
2009,08,20,14,18,22.20
2009,08,20,14,19,22.20
2009,08,20,14,20,22.20
2009,08,20,14,21,22.20
2009,08,20,14,22,22.30
2009,08,20,14,23,22.40
2009,08,20,14,24,22.50
2009,08,20,14,25,22.70
2009,08,20,14,26,22.80
2009,08,20,14,27,23.00
2009,08,20,14,28,23.20
2009,08,20,14,29,23.20
2009,08,20,14,30,23.20
2009,08,20,14,31,23.20
2009,08,20,14,32,23.20
2009,08,20,14,33,23.10
2009,08,20,14,34,23.10
2009,08,20,14,35,23.00
2009,08,20,14,36,23.00
2009,08,20,14,37,23.00
2009,08,20,14,38,23.00
2009,08,20,14,39,22.90
2009,08,20,14,40,22.80
2009,08,20,14,41,22.70
2009,08,20,14,42,22.60
2009,08,20,14,43,22.50
2009,08,20,14,44,22.50
2009,08,20,14,45,22.40
2009,08,20,14,46,22.50
2009,08,20,14,47,22.50
2009,08,20,14,48,22.50
2009,08,20,14,49,22.50
2009,08,20,14,50,22.50
2009,08,20,14,51,22.40
2009,08,20,14,52,22.40
2009,08,20,14,53,22.40
2009,08,20,14,54,22.40
2009,08,20,14,55,22.40
2009,08,20,14,56,22.50
2009,08,20,14,57,22.50
2009,08,20,14,58,22.50
2009,08,20,14,59,22.40
2009,08,20,15,00,22.50
2009,08,20,15,01,22.60
2009,08,20,15,02,22.60
2009,08,20,15,03,22.60
2009,08,20,15,04,22.70
2009,08,20,15,05,22.80
2009,08,20,15,06,22.80
2009,08,20,15,07,22.70
2009,08,20,15,08,22.70
2009,08,20,15,09,22.70
2009,08,20,15,10,22.70
2009,08,20,15,11,22.70
2009,08,20,15,12,22.80
2009,08,20,15,13,22.80
2009,08,20,15,14,22.90
2009,08,20,15,15,23.00
2009,08,20,15,16,23.00
2009,08,20,15,17,23.10
2009,08,20,15,18,23.10
2009,08,20,15,19,23.10
2009,08,20,15,20,23.20
2009,08,20,15,21,23.10
2009,08,20,15,22,23.00
2009,08,20,15,23,22.90
2009,08,20,15,24,22.90
2009,08,20,15,25,22.90
2009,08,20,15,26,22.80
2009,08,20,15,27,22.70
2009,08,20,15,28,22.70
2009,08,20,15,29,22.70
2009,08,20,15,30,22.70
2009,08,20,15,31,22.80
2009,08,20,15,32,22.80
2009,08,20,15,33,22.80
2009,08,20,15,34,22.80
2009,08,20,15,35,22.80
2009,08,20,15,36,22.80
2009,08,20,15,37,22.80
2009,08,20,15,38,22.90
2009,08,20,15,39,22.90
2009,08,20,15,40,22.80
2009,08,20,15,41,22.80
2009,08,20,15,42,22.80
2009,08,20,15,43,22.70
2009,08,20,15,44,22.60
2009,08,20,15,45,22.50
2009,08,20,15,46,22.50
2009,08,20,15,47,22.50
2009,08,20,15,48,22.50
2009,08,20,15,49,22.50
2009,08,20,15,50,22.40
2009,08,20,15,51,22.40
2009,08,20,15,52,22.40
2009,08,20,15,53,22.40
2009,08,20,15,54,22.40
2009,08,20,15,55,22.40
2009,08,20,15,56,22.40
2009,08,20,15,57,22.30
2009,08,20,15,58,22.30
2009,08,20,15,59,22.20
2009,08,20,16,00,22.20
2009,08,20,16,01,22.30
2009,08,20,16,02,22.40
2009,08,20,16,03,22.40
2009,08,20,16,04,22.40
2009,08,20,16,05,22.40
2009,08,20,16,06,22.50
2009,08,20,16,07,22.60
2009,08,20,16,08,22.70
2009,08,20,16,09,22.70
2009,08,20,16,10,22.80
2009,08,20,16,11,22.80
2009,08,20,16,12,22.80
2009,08,20,16,13,22.80
2009,08,20,16,14,22.80
2009,08,20,16,15,22.90
2009,08,20,16,16,23.00
2009,08,20,16,17,23.10
2009,08,20,16,18,23.20
2009,08,20,16,19,23.30
2009,08,20,16,20,23.40
2009,08,20,16,21,23.60
2009,08,20,16,22,23.80
2009,08,20,16,23,23.90
2009,08,20,16,24,24.00
2009,08,20,16,25,24.10
2009,08,20,16,26,24.10
2009,08,20,16,27,24.20
2009,08,20,16,28,24.40
2009,08,20,16,29,24.50
2009,08,20,16,30,24.60
2009,08,20,16,31,24.70
2009,08,20,16,32,24.80
2009,08,20,16,33,24.90
2009,08,20,16,34,25.00
2009,08,20,16,35,25.10
2009,08,20,16,36,25.10
2009,08,20,16,37,25.20
2009,08,20,16,38,25.10
2009,08,20,16,39,25.10
2009,08,20,16,40,25.10
2009,08,20,16,41,25.10
2009,08,20,16,42,25.20
2009,08,20,16,43,25.20
2009,08,20,16,44,25.10
2009,08,20,16,45,25.00
2009,08,20,16,46,24.90
2009,08,20,16,47,24.80
2009,08,20,16,48,24.80
2009,08,20,16,49,24.80
2009,08,20,16,50,24.90
2009,08,20,16,51,24.90
2009,08,20,16,52,24.90
2009,08,20,16,53,24.90
2009,08,20,16,54,24.90
2009,08,20,16,55,25.00
2009,08,20,16,56,25.00
2009,08,20,16,57,25.00
2009,08,20,16,58,25.10
2009,08,20,16,59,25.10
2009,08,20,17,00,25.10
2009,08,20,17,01,25.10
2009,08,20,17,02,25.20
2009,08,20,17,03,25.20
2009,08,20,17,04,25.20
2009,08,20,17,05,25.30
2009,08,20,17,06,25.40
2009,08,20,17,07,25.50
2009,08,20,17,08,25.60
2009,08,20,17,09,25.60
2009,08,20,17,10,25.60
2009,08,20,17,11,25.60
2009,08,20,17,12,25.60
2009,08,20,17,13,25.60
2009,08,20,17,14,25.70
2009,08,20,17,15,25.70
2009,08,20,17,16,25.70
2009,08,20,17,17,25.70
2009,08,20,17,18,25.70
2009,08,20,17,19,25.80
2009,08,20,17,20,25.80
2009,08,20,17,21,25.70
2009,08,20,17,22,25.70
2009,08,20,17,23,25.60
2009,08,20,17,24,25.50
2009,08,20,17,25,25.40
2009,08,20,17,26,25.40
2009,08,20,17,27,25.30
2009,08,20,17,28,25.20
2009,08,20,17,29,25.10
2009,08,20,17,30,25.00
2009,08,20,17,31,25.00
2009,08,20,17,32,25.00
2009,08,20,17,33,25.00
2009,08,20,17,34,25.00
2009,08,20,17,35,24.90
2009,08,20,17,36,25.00
2009,08,20,17,37,25.00
2009,08,20,17,38,25.00
2009,08,20,17,39,25.00
2009,08,20,17,40,24.90
2009,08,20,17,41,24.80
2009,08,20,17,42,24.70
2009,08,20,17,43,24.60
2009,08,20,17,44,24.40
2009,08,20,17,45,24.40
2009,08,20,17,46,24.40
2009,08,20,17,47,24.40
2009,08,20,17,48,24.40
2009,08,20,17,49,24.40
2009,08,20,17,50,24.40
2009,08,20,17,51,24.40
2009,08,20,17,52,24.40
2009,08,20,17,53,24.40
2009,08,20,17,54,24.40
2009,08,20,17,55,24.30
2009,08,20,17,56,24.30
2009,08,20,17,57,24.30
2009,08,20,17,58,24.30
2009,08,20,17,59,24.30
2009,08,20,18,00,24.30
2009,08,20,18,01,24.40
2009,08,20,18,02,24.40
2009,08,20,18,03,24.40
2009,08,20,18,04,24.50
2009,08,20,18,05,24.50
2009,08,20,18,06,24.60
2009,08,20,18,07,24.60
2009,08,20,18,08,24.60
2009,08,20,18,09,24.70
2009,08,20,18,10,24.70
2009,08,20,18,11,24.60
2009,08,20,18,12,24.50
2009,08,20,18,13,24.40
2009,08,20,18,14,24.40
2009,08,20,18,15,24.30
2009,08,20,18,16,24.10
2009,08,20,18,17,24.10
2009,08,20,18,18,24.00
2009,08,20,18,19,24.00
2009,08,20,18,20,23.90
2009,08,20,18,21,23.90
2009,08,20,18,22,23.80
2009,08,20,18,23,23.80
2009,08,20,18,24,23.80
2009,08,20,18,25,23.90
2009,08,20,18,26,23.90
2009,08,20,18,27,23.90
2009,08,20,18,28,23.90
2009,08,20,18,29,23.90
2009,08,20,18,30,23.90
2009,08,20,18,31,23.90
2009,08,20,18,32,23.90
2009,08,20,18,33,23.90
2009,08,20,18,34,23.90
2009,08,20,18,35,23.90
2009,08,20,18,36,23.90
2009,08,20,18,37,23.90
2009,08,20,18,38,23.90
2009,08,20,18,39,23.90
2009,08,20,18,40,23.90
2009,08,20,18,41,23.90
2009,08,20,18,42,23.90
2009,08,20,18,43,23.90
2009,08,20,18,44,23.90
2009,08,20,18,45,23.90
2009,08,20,18,46,23.90
2009,08,20,18,47,23.90
2009,08,20,18,48,23.90
2009,08,20,18,49,23.90
2009,08,20,18,50,23.90
2009,08,20,18,51,23.90
2009,08,20,18,52,23.90
2009,08,20,18,53,23.80
2009,08,20,18,54,23.80
2009,08,20,18,55,23.80
2009,08,20,18,56,23.80
2009,08,20,18,57,23.80
2009,08,20,18,58,23.80
2009,08,20,18,59,23.80
2009,08,20,19,00,23.80
2009,08,20,19,01,23.80
2009,08,20,19,02,23.70
2009,08,20,19,03,23.70
2009,08,20,19,04,23.60
2009,08,20,19,05,23.60
2009,08,20,19,06,23.50
2009,08,20,19,07,23.40
2009,08,20,19,08,23.40
2009,08,20,19,09,23.40
2009,08,20,19,10,23.30
2009,08,20,19,11,23.30
2009,08,20,19,12,23.30
2009,08,20,19,13,23.30
2009,08,20,19,14,23.30
2009,08,20,19,15,23.30
2009,08,20,19,16,23.30
2009,08,20,19,17,23.30
2009,08,20,19,18,23.30
2009,08,20,19,19,23.30
2009,08,20,19,20,23.30
2009,08,20,19,21,23.30
2009,08,20,19,22,23.30
2009,08,20,19,23,23.30
2009,08,20,19,24,23.30
2009,08,20,19,25,23.30
2009,08,20,19,26,23.30
